Probability
9 10 14 17 15 11 9 6 2 0 1 0 0 0 0 0 0 0 0 0 0 0 0 0 0 0 0 0 0 0 0 0 0 0 0 0 0 0 0 0 0 0 0
7 8 11 13 14 12 10 6 3 1 1 0 0 0 0 0 0 0 0 0 0 0 0 0 0 0 0 0 0 0 0 0 0 0 0 0 0 0 0 0 0 0 0
3 4 7 11 14 14 13 11 9 8 6 3 1 0 0 0 0 0 0 0 0 0 0 0 0 0 0 0 0 0 0 0 0 0 0 0 0 0 0 0 0 0 0
0 1 4 10 15 18 20 20 19 17 13 7 2 1 1 0 0 0 0 0 0 0 0 0 0 0 0 0 0 0 0 0 0 0 0 0 0 0 0 0 0 0 0
0 0 3 7 13 21 27 28 28 25 17 10 4 1 1 0 0 0 0 0 0 0 0 0 0 0 0 0 0 0 0 0 0 0 0 0 0 0 0 0 0 0 0
1 1 2 3 9 21 31 33 34 30 22 13 5 2 1 0 0 0 0 0 0 0 0 0 0 0 1 0 0 0 0 0 0 0 0 0 0 0 0 0 0 0 0
2 2 2 4 9 19 26 31 35 36 29 19 12 7 3 1 0 0 0 0 0 0 0 1 0 0 0 0 0 0 0 0 0 0 0 0 0 0 0 0 0 0 0
2 2 3 5 10 16 20 25 32 37 34 27 22 17 9 2 0 0 1 2 1 1 0 0 0 0 0 0 0 0 0 0 0 0 0 0 0 0 0 0 0 0 0
1 1 1 3 8 13 17 20 25 31 34 32 29 24 14 7 4 3 2 4 3 2 0 0 0 0 0 0 0 0 0 0 0 0 0 0 0 0 0 0 0 0 0
0 0 0 1 4 8 13 16 19 24 30 34 32 26 21 16 12 8 6 7 6 4 2 2 1 0 0 1 1 1 0 0 0 0 0 0 0 0 0 0 0 0 0
0 0 0 0 1 4 8 13 16 21 28 33 34 30 28 24 15 11 9 10 11 9 8 7 6 5 4 4 4 2 0 0 0 0 0 1 1 0 0 0 0 0 0
0 0 0 0 0 2 6 10 13 19 26 30 32 32 30 25 17 12 10 11 13 13 14 16 17 17 15 12 8 3 0 0 0 0 0 1 1 0 0 0 0 0 0
0 0 0 0 0 1 3 6 10 16 23 26 27 28 28 28 24 16 10 10 12 13 14 19 24 25 22 19 12 4 0 0 0 0 0 1 1 0 0 0 0 0 0
0 0 0 0 0 0 1 3 6 12 19 23 22 23 28 32 30 22 14 11 11 10 10 13 19 21 21 18 10 3 0 0 0 0 0 0 0 0 0 0 0 0 0
0 0 0 0 0 0 0 1 2 6 13 18 20 22 27 32 32 26 19 14 9 6 5 8 12 14 16 14 6 2 1 0 0 0 0 0 0 0 0 0 0 0 0
0 0 0 0 0 0 0 0 0 3 7 11 15 19 23 28 30 28 22 15 7 3 3 6 8 8 10 10 6 5 6 4 1 0 0 0 0 0 0 0 0 0 0
0 0 0 0 0 0 0 0 0 1 4 7 10 12 16 19 23 24 19 12 5 2 2 3 4 4 5 7 8 9 10 9 5 1 0 0 0 0 0 0 0 0 0
0 0 0 0 0 0 0 0 0 0 3 6 7 8 10 12 14 16 14 8 4 2 2 2 2 3 4 6 9 10 12 12 9 2 0 0 0 0 0 0 0 0 0
0 0 0 0 0 0 0 0 0 0 2 4 6 7 8 9 10 10 9 6 5 3 3 3 4 4 3 5 7 9 11 13 8 2 0 0 0 0 0 0 0 0 0
0 0 0 0 0 0 0 0 0 0 1 2 5 6 6 7 8 7 6 6 7 6 4 4 4 5 4 4 6 6 8 9 7 4 2 1 0 0 0 0 0 0 0
0 0 0 0 0 0 0 0 0 0 0 1 2 4 5 6 5 5 4 5 5 6 6 4 5 5 3 3 4 4 4 4 4 5 4 2 1 0 0 0 0 0 0
0 0 0 0 0 0 0 0 0 0 0 0 1 1 3 4 4 2 2 2 2 3 4 5 5 3 1 1 2 2 2 1 2 3 3 2 1 0 0 0 0 0 0
0 0 0 0 0 0 0 0 0 0 0 0 0 0 1 2 2 2 1 1 0 1 2 4 4 2 1 0 1 1 1 1 1 1 1 0 0 0 0 0 0 0 0
0 0 0 0 0 0 0 0 0 0 0 0 0 0 0 1 1 1 1 0 0 0 0 2 3 2 1 1 2 2 2 1 1 0 0 0 0 0 0 0 0 0 0
0 0 0 0 0 0 0 0 0 0 0 0 0 0 0 0 0 0 0 0 0 0 0 0 1 1 1 1 3 4 2 1 0 0 0 0 0 0 0 0 0 0 0
0 0 0 0 0 0 0 0 0 0 0 0 0 0 0 0 0 0 0 0 0 0 0 0 0 0 0 1 2 3 2 1 0 0 0 0 0 0 0 0 0 0 0
Wind_Speed
5 5 4 4 6 5 6 6 7 7 8 8 8 8 8 9 8 7 4 8 6 7 8 8 8 8 7 7 7 8 8 8 9 9 9 9 9 9 9 8 8 8 7
5 5 6 5 5 5 5 6 7 7 7 6 8 9 9 8 9 8 6 8 9 7 7 9 9 9 9 8 8 8 8 8 9 9 9 9 9 8 8 8 8 7 6
6 6 6 5 5 5 6 5 7 6 6 7 8 9 8 9 8 9 8 6 8 10 9 9 10 10 10 9 9 9 9 9 9 9 10 9 9 8 8 8 7 6 5
7 6 6 6 5 5 4 4 5 5 6 6 7 7 7 7 10 10 8 8 7 7 10 11 9 9 10 10 10 10 10 10 10 10 10 10 9 8 8 7 7 6 5
7 7 6 5 5 5 5 5 5 6 6 6 6 5 6 7 8 9 10 10 9 8 7 11 10 8 9 10 11 11 11 11 11 10 10 10 9 9 8 7 7 6 5
7 7 6 7 6 5 5 6 7 6 5 5 6 6 6 6 7 8 9 8 8 10 9 9 10 10 10 9 10 11 12 12 12 11 11 11 10 10 9 8 7 6 5
7 7 6 6 6 6 6 7 7 8 7 5 4 5 6 7 8 7 8 8 9 9 9 9 8 7 9 12 10 10 12 13 13 12 12 12 11 10 10 9 8 7 6
6 6 7 6 6 6 7 7 7 6 6 6 5 4 5 6 7 9 8 8 10 9 10 11 11 9 7 8 10 12 10 11 12 13 13 12 12 11 10 9 8 8 7
6 6 7 7 6 7 6 7 7 9 7 7 7 5 5 6 4 6 10 10 10 8 9 10 11 11 10 8 9 13 12 10 11 12 13 12 12 12 11 10 9 8 7
7 6 6 6 7 6 7 7 8 7 8 7 7 8 6 3 4 4 5 9 11 11 11 9 10 10 10 8 7 9 14 12 11 12 12 13 13 13 12 11 10 9 8
7 6 6 6 6 6 7 8 8 8 7 8 6 6 7 5 6 4 5 6 7 9 10 10 9 9 9 9 8 10 13 12 11 12 12 13 13 13 13 12 11 10 9
5 7 7 6 6 6 6 7 7 9 8 9 8 7 6 6 7 6 6 5 6 7 9 8 9 9 8 9 10 11 14 13 13 12 11 11 12 13 13 12 11 11 10
6 8 7 6 5 6 6 7 7 8 9 9 9 8 8 8 6 6 6 5 5 4 5 7 8 8 8 8 8 13 13 14 13 13 12 10 10 11 12 13 12 12 11
7 9 8 7 7 6 6 6 6 7 7 8 9 10 8 8 7 7 7 6 5 5 6 8 7 9 9 9 8 13 12 15 14 13 12 11 11 11 10 11 11 11 11
7 9 8 7 7 6 6 6 5 6 6 7 8 8 8 7 7 7 7 7 7 7 8 8 6 8 8 7 9 10 11 15 15 14 13 12 12 11 11 10 9 9 9
8 8 8 7 6 6 6 5 5 5 5 6 5 7 7 6 6 7 7 7 8 7 6 5 5 5 7 7 9 11 10 14 15 15 14 14 13 12 11 10 10 9 9
8 8 8 8 7 7 6 5 5 5 5 5 5 6 7 7 6 6 6 7 7 7 8 5 3 4 7 8 7 8 8 9 10 15 15 14 14 13 12 11 11 10 9
8 8 8 8 7 7 7 6 6 5 5 5 5 5 5 5 7 6 6 7 7 9 8 8 6 6 7 8 8 8 7 7 8 14 15 15 14 14 13 12 12 11 11
8 8 8 8 8 7 7 6 6 6 5 5 5 5 5 5 6 5 6 7 6 7 7 7 6 5 4 6 7 7 7 6 7 10 14 14 14 14 13 12 12 12 11
8 8 8 8 8 7 7 7 7 6 6 5 5 5 5 5 5 6 6 6 6 7 7 7 6 6 5 7 7 7 6 5 6 7 8 10 13 14 14 13 13 13 12
8 8 8 8 7 7 7 9 9 7 6 6 5 4 4 5 5 5 5 5 6 6 6 6 6 6 6 7 8 6 7 6 5 5 7 7 8 7 9 12 13 14 13
7 8 8 8 7 6 8 10 10 8 7 6 5 4 4 5 5 6 7 7 7 7 7 7 6 7 8 8 7 8 8 8 5 5 6 6 6 6 6 6 11 13 13
7 7 8 7 8 7 9 11 11 9 7 6 5 5 4 4 5 5 5 8 9 9 9 7 8 8 8 9 10 10 9 8 5 7 7 5 5 6 5 7 13 13 13
7 7 7 8 7 7 9 11 13 9 6 5 5 5 5 5 3 4 5 5 5 6 8 8 7 7 8 8 10 9 9 9 8 6 5 5 4 5 5 7 12 13 12
7 7 7 7 7 7 8 11 12 7 5 6 5 5 5 5 3 4 5 4 4 3 3 4 4 6 8 10 10 9 10 10 7 4 3 4 5 5 4 5 8 11 11
6 6 6 6 7 7 7 9 12 6 5 5 5 4 3 5 6 5 4 3 3 2 3 6 6 8 8 11 12 10 10 10 8 5 4 5 6 5 4 3 5 7 8
Wind_Direction
262 254 250 245 249 245 236 230 229 232 235 237 236 236 232 224 229 219 175 167 204 215 206 200 199 196 194 193 185 173 164 159 154 151 146 140 136 133 131 130 129 126 123
270 265 253 250 252 254 251 242 233 227 228 230 236 236 241 232 230 220 215 180 192 206 210 206 204 199 197 197 193 180 172 167 161 160 153 148 146 144 141 139 139 135 131
268 267 263 252 249 253 249 243 237 231 225 220 227 234 233 237 235 224 215 212 195 192 203 208 208 204 202 199 196 188 180 174 169 166 162 161 160 158 155 152 150 148 142
271 269 264 259 250 250 246 238 231 222 223 224 223 224 229 222 233 231 220 212 213 197 189 197 203 205 205 203 199 192 187 181 177 174 170 170 169 167 166 166 163 160 157
280 270 267 265 255 246 244 240 225 223 222 224 227 226 238 232 230 227 226 220 209 208 199 172 191 201 204 207 204 196 192 188 184 182 179 176 175 176 177 176 173 171 171
291 282 270 262 258 246 239 238 233 222 225 224 231 228 225 235 235 235 237 228 220 210 209 184 187 193 199 204 206 202 198 195 191 188 187 186 184 183 183 182 183 184 186
301 289 282 274 262 254 248 242 236 228 221 212 222 230 229 232 237 231 235 233 224 217 209 200 203 193 186 196 204 205 203 199 197 195 194 193 190 190 190 190 193 192 191
309 295 285 277 266 259 253 247 237 233 225 205 206 210 221 220 228 227 225 229 231 211 218 212 201 199 202 186 185 195 202 203 203 202 200 196 194 194 194 195 195 195 194
316 304 295 284 273 262 251 245 239 232 227 215 212 208 211 216 204 215 220 220 227 219 214 218 212 202 202 201 180 185 193 199 205 205 202 199 196 197 196 196 196 197 195
326 319 304 292 279 267 259 249 240 240 235 224 216 224 234 233 205 204 214 223 223 220 219 213 218 212 204 204 191 173 180 192 202 209 207 202 198 197 196 197 197 194 191
333 331 320 307 293 275 265 259 250 241 236 232 221 214 219 223 229 223 210 207 215 220 220 218 213 213 208 207 198 184 176 188 197 207 209 204 200 199 196 196 195 192 188
336 341 327 315 304 290 273 262 255 246 240 237 232 221 214 208 210 213 219 210 210 213 215 219 219 210 208 208 204 172 176 188 195 201 206 203 199 199 195 194 194 191 189
339 340 335 322 314 303 289 272 259 252 245 240 235 230 227 225 219 213 215 213 216 215 211 216 220 214 208 209 199 171 183 189 194 198 197 195 193 194 194 193 193 192 191
334 335 334 328 323 312 302 285 266 256 250 246 242 237 233 229 222 218 215 207 209 212 214 217 210 213 212 210 197 180 190 190 193 193 190 188 185 183 185 189 192 192 191
333 334 330 327 329 326 316 306 284 268 257 251 249 243 235 231 224 222 220 213 210 214 217 213 206 211 211 212 181 196 204 183 187 188 185 181 178 178 181 181 182 183 178
339 332 333 330 332 331 323 313 300 294 273 256 249 243 236 233 225 220 218 219 219 222 226 211 202 196 204 206 194 204 207 171 182 183 182 179 175 175 177 177 176 172 170
337 335 336 336 338 336 331 324 313 307 296 281 263 251 241 234 226 221 219 220 220 220 229 223 202 196 199 205 190 199 194 183 181 180 179 176 173 170 168 167 166 162 160
338 336 338 339 343 340 335 328 321 314 303 297 285 266 254 238 229 223 219 221 220 218 221 218 202 194 201 198 190 188 187 188 181 173 172 168 165 161 160 160 159 157 155
334 335 338 340 339 338 334 331 324 315 306 299 290 279 267 252 239 230 225 224 219 219 219 218 206 193 191 185 181 181 178 176 176 165 164 162 159 156 155 155 154 152 150
334 334 336 336 334 334 335 334 329 319 313 305 295 286 277 262 251 240 232 229 223 217 213 210 199 185 184 178 176 173 169 165 164 160 157 157 154 152 152 152 152 151 148
330 335 333 332 335 333 346 341 329 321 317 312 299 290 283 281 281 266 249 232 225 218 211 207 198 189 185 178 181 173 164 148 148 149 143 148 150 152 154 153 152 150 148
332 335 331 332 332 342 348 337 328 319 314 311 305 298 283 255 261 260 254 242 234 224 213 207 204 197 189 182 173 168 159 154 154 157 144 138 143 144 147 148 147 149 148
334 332 331 331 330 348 347 336 332 316 313 314 310 305 298 286 270 267 248 233 229 223 221 217 207 201 190 180 173 173 171 162 143 151 140 131 137 132 131 133 143 145 147
333 327 328 329 328 339 347 337 329 313 315 315 312 308 298 294 295 299 279 252 232 216 216 218 210 199 189 180 177 170 155 131 113 129 129 120 129 122 123 131 142 144 144
325 327 328 326 325 335 357 340 330 319 319 323 325 324 318 312 337 309 277 254 232 211 194 198 186 174 168 164 159 150 148 145 137 131 126 118 129 115 114 125 135 137 138
313 316 320 319 325 328 352 342 334 322 326 327 323 323 345 334 329 308 274 245 222 203 172 159 156 155 160 157 159 162 159 154 142 135 149 131 140 135 124 122 140 150 145